| time (UTC) | temp F | wind direction | speed knots | gust knots | rain 1hr in | rain 24hr in | rain mn in | humidity % | barometer mb |
| 20260901052018 | 61 | 0.0 | 0.0 | 0.00 | 0.00 | 0.00 | 83 | 1009.1 | |
| 20260901051016 | 62 | 0.0 | 0.0 | 0.00 | 0.00 | 0.00 | 82 | 1009.2 | |
| 20260901050017 | 62 | 0.0 | 0.0 | 0.00 | 0.00 | 0.00 | 81 | 1009.1 | |
| 20260901045018 | 62 | 0.0 | 0.0 | 0.00 | 0.00 | 0.00 | 81 | 1009.2 | |
| 20260901044016 | 63 | 0.0 | 0.0 | 0.00 | 0.00 | 0.00 | 82 | 1009.0 | |
| 20260901043018 | 63 | 0.0 | 0.0 | 0.00 | 0.00 | 0.00 | 81 | 1009.0 | |
| 20260901042038 | 63 | 0.0 | 0.0 | 0.00 | 0.00 | 0.00 | 81 | 1009.1 | |
| 20260901041024 | 64 | 0.0 | 0.0 | 0.00 | 0.00 | 0.00 | 80 | 1009.1 | |
| 20260901040036 | 64 | 0.0 | 0.0 | 0.00 | 0.00 | 0.00 | 79 | 1009.0 | |
| 20260901035038 | 65 | 0.0 | 0.0 | 0.00 | 0.00 | 0.00 | 78 | 1008.9 | |
| 20260901034016 | 65 | 0.0 | 0.0 | 0.00 | 0.00 | 0.00 | 77 | 1008.8 | |
| 20260901033016 | 66 | 0.0 | 0.0 | 0.00 | 0.00 | 0.00 | 77 | 1008.6 | |
| 20260901032016 | 67 | 0.0 | 0.0 | 0.00 | 0.00 | 0.00 | 75 | 1008.7 | |
| 20260901031016 | 67 | 0.0 | 0.0 | 0.00 | 0.00 | 0.00 | 74 | 1008.6 | |
| 20260901030016 | 67 | 0.0 | 0.0 | 0.00 | 0.00 | 0.00 | 72 | 1008.5 | |
| 20260901025042 | 68 | 0.0 | 0.0 | 0.00 | 0.00 | 0.00 | 72 | 1008.5 | |
| 20260901024016 | 69 | 0.0 | 0.0 | 0.00 | 0.00 | 0.00 | 72 | 1008.5 | |
| 20260901023016 | 69 | 0.0 | 0.9 | 0.00 | 0.00 | 0.00 | 70 | 1008.3 | |
| 20260901022016 | 70 | 0.0 | 0.9 | 0.00 | 0.00 | 0.00 | 67 | 1008.4 | |
| 20260901021016 | 70 | 0.0 | 0.0 | 0.00 | 0.00 | 0.00 | 66 | 1008.3 | |
| 20260901020016 | 71 | 0.0 | 0.9 | 0.00 | 0.00 | 0.00 | 65 | 1008.4 | |
| 20260901015017 | 72 | 0.0 | 0.0 | 0.00 | 0.00 | 0.00 | 64 | 1008.3 | |
| 20260901014039 | 72 | 0.0 | 0.9 | 0.00 | 0.00 | 0.00 | 63 | 1008.3 | |
| 20260901013017 | 73 | 0.0 | 0.9 | 0.00 | 0.00 | 0.00 | 62 | 1008.3 | |
| 20260901012016 | 73 | 0.0 | 0.9 | 0.00 | 0.00 | 0.00 | 62 | 1008.3 | |
| 20260901011016 | 73 | 0.0 | 0.9 | 0.00 | 0.00 | 0.00 | 61 | 1008.3 | |
| 20260901010020 | 74 | 0.0 | 1.7 | 0.00 | 0.00 | 0.00 | 59 | 1008.3 | |
| 20260901005018 | 74 | 0.0 | 0.0 | 0.00 | 0.00 | 0.00 | 58 | 1008.4 | |
| 20260901004016 | 75 | 0.0 | 0.9 | 0.00 | 0.00 | 0.00 | 56 | 1008.4 | |
| 20260901003018 | 75 | 0.0 | 1.7 | 0.00 | 0.00 | 0.00 | 55 | 1008.5 | |
| 20260901002037 | 75 | 0.0 | 0.9 | 0.00 | 0.00 | 0.00 | 55 | 1008.6 | |
| 20260901001017 | 75 | 158 | 0.9 | 2.6 | 0.00 | 0.00 | 0.00 | 56 | 1008.7 |
| 20260901000017 | 75 | 158 | 0.9 | 1.7 | 0.00 | 0.00 | 0.00 | 56 | 1008.8 |
| 20260831235017 | 75 | 158 | 0.9 | 2.6 | 0.00 | 0.00 | 0.00 | 57 | 1008.9 |
| 20260831234015 | 74 | 158 | 0.9 | 3.5 | 0.00 | 0.00 | 0.00 | 58 | 1008.9 |
| 20260831233016 | 74 | 158 | 0.9 | 3.5 | 0.00 | 0.00 | 0.00 | 57 | 1009.0 |
| 20260831232017 | 75 | 158 | 0.9 | 2.6 | 0.00 | 0.00 | 0.00 | 56 | 1009.2 |
| 20260831231017 | 75 | 158 | 0.9 | 2.6 | 0.00 | 0.00 | 0.00 | 56 | 1009.2 |
| 20260831230017 | 75 | 158 | 0.9 | 2.6 | 0.00 | 0.00 | 0.00 | 56 | 1009.3 |
| 20260831225017 | 75 | 158 | 0.9 | 3.5 | 0.00 | 0.00 | 0.00 | 56 | 1009.4 |
| 20260831224015 | 75 | 158 | 0.9 | 3.5 | 0.00 | 0.00 | 0.00 | 56 | 1009.6 |
| 20260831223016 | 75 | 158 | 0.9 | 4.3 | 0.00 | 0.00 | 0.00 | 57 | 1009.7 |
| 20260831222015 | 75 | 158 | 0.9 | 2.6 | 0.00 | 0.00 | 0.00 | 55 | 1009.8 |
| 20260831221035 | 75 | 0.0 | 1.7 | 0.00 | 0.00 | 0.00 | 56 | 1009.8 | |
| 20260831220018 | 75 | 0.0 | 2.6 | 0.00 | 0.00 | 0.00 | 56 | 1010.0 | |
| 20260831215034 | 75 | 0.0 | 1.7 | 0.00 | 0.00 | 0.00 | 57 | 1010.1 | |
| 20260831214024 | 74 | 158 | 0.9 | 3.5 | 0.00 | 0.00 | 0.00 | 58 | 1010.1 |
| 20260831213018 | 74 | 158 | 0.9 | 2.6 | 0.00 | 0.00 | 0.00 | 59 | 1010.4 |
| 20260831212017 | 74 | 158 | 0.9 | 4.3 | 0.00 | 0.00 | 0.00 | 60 | 1010.3 |
| 20260831211017 | 73 | 158 | 0.9 | 4.3 | 0.00 | 0.00 | 0.00 | 60 | 1010.5 |
| 20260831210017 | 73 | 158 | 0.9 | 2.6 | 0.00 | 0.00 | 0.00 | 59 | 1010.7 |
| 20260831205020 | 72 | 135 | 0.9 | 3.5 | 0.00 | 0.00 | 0.00 | 61 | 1010.8 |
| 20260831204017 | 72 | 158 | 0.9 | 2.6 | 0.00 | 0.00 | 0.00 | 62 | 1010.9 |
| 20260831203038 | 71 | 158 | 0.9 | 2.6 | 0.00 | 0.00 | 0.00 | 63 | 1010.9 |
| 20260831202017 | 71 | 158 | 0.9 | 2.6 | 0.00 | 0.00 | 0.00 | 63 | 1011.2 |
| 20260831201022 | 70 | 158 | 0.9 | 3.5 | 0.00 | 0.00 | 0.00 | 63 | 1011.3 |
| 20260831200044 | 70 | 0.0 | 1.7 | 0.00 | 0.00 | 0.00 | 64 | 1011.4 | |
| 20260831195017 | 69 | 158 | 0.9 | 2.6 | 0.00 | 0.00 | 0.00 | 64 | 1011.6 |
| 20260831191017 | 67 | 225 | 0.9 | 3.5 | 0.00 | 0.00 | 0.00 | 70 | 1012.3 |
| 20260831190023 | 66 | 0.0 | 2.6 | 0.00 | 0.00 | 0.00 | 72 | 1012.5 | |
| 20260831185019 | 66 | 158 | 0.9 | 2.6 | 0.00 | 0.00 | 0.00 | 72 | 1012.7 |
| 20260831184019 | 65 | 158 | 0.9 | 3.5 | 0.00 | 0.00 | 0.00 | 73 | 1012.7 |
| 20260831183017 | 65 | 0.0 | 1.7 | 0.00 | 0.00 | 0.00 | 72 | 1012.8 | |
| 20260831182019 | 64 | 0.0 | 1.7 | 0.00 | 0.00 | 0.00 | 74 | 1013.0 | |
| 20260831181018 | 63 | 158 | 0.9 | 3.5 | 0.00 | 0.00 | 0.00 | 76 | 1013.1 |
| 20260831180038 | 62 | 158 | 0.9 | 2.6 | 0.00 | 0.00 | 0.00 | 77 | 1013.1 |
| 20260831175017 | 61 | 158 | 0.9 | 1.7 | 0.00 | 0.00 | 0.00 | 80 | 1013.3 |
| 20260831174020 | 60 | 158 | 0.9 | 2.6 | 0.00 | 0.00 | 0.00 | 81 | 1013.3 |
| 20260831173017 | 60 | 0.0 | 1.7 | 0.00 | 0.00 | 0.00 | 82 | 1013.5 | |
| 20260831172017 | 59 | 0.0 | 0.9 | 0.00 | 0.00 | 0.00 | 83 | 1013.6 | |
| 20260831171019 | 59 | 0.0 | 1.7 | 0.00 | 0.00 | 0.00 | 84 | 1013.6 | |
| 20260831170017 | 58 | 0.0 | 0.0 | 0.00 | 0.00 | 0.00 | 85 | 1013.7 | |
| 20260831165017 | 58 | 0.0 | 1.7 | 0.00 | 0.00 | 0.00 | 86 | 1013.7 | |
| 20260831164017 | 57 | 0.0 | 0.9 | 0.00 | 0.00 | 0.00 | 87 | 1013.9 | |
| 20260831163017 | 56 | 0.0 | 0.0 | 0.00 | 0.00 | 0.00 | 88 | 1013.9 | |
| 20260831162021 | 56 | 0.0 | 0.0 | 0.00 | 0.00 | 0.00 | 91 | 1014.1 | |
| 20260831161019 | 55 | 0.0 | 0.0 | 0.00 | 0.00 | 0.00 | 93 | 1014.1 | |
| 20260831160040 | 54 | 0.0 | 0.0 | 0.00 | 0.00 | 0.00 | 95 | 1014.2 | |
| 20260831155017 | 53 | 0.0 | 0.0 | 0.00 | 0.00 | 0.00 | 96 | 1014.1 | |
| 20260831154017 | 52 | 0.0 | 0.0 | 0.00 | 0.00 | 0.00 | 97 | 1014.2 | |
| 20260831153017 | 51 | 0.0 | 0.0 | 0.00 | 0.00 | 0.00 | 97 | 1014.3 | |
| 20260831152017 | 51 | 0.0 | 0.0 | 0.00 | 0.00 | 0.00 | 97 | 1014.4 | |
| 20260831151018 | 50 | 0.0 | 0.0 | 0.00 | 0.00 | 0.00 | 97 | 1014.4 | |
| 20260831150100 | 50 | 0.0 | 0.0 | 0.00 | 0.00 | 0.00 | 96 | 1014.3 | |
| 20260831145017 | 50 | 0.0 | 0.0 | 0.00 | 0.00 | 0.00 | 96 | 1014.3 | |
| 20260831144017 | 50 | 0.0 | 0.0 | 0.00 | 0.00 | 0.00 | 96 | 1014.3 | |
| 20260831143018 | 50 | 0.0 | 0.0 | 0.00 | 0.00 | 0.00 | 96 | 1014.3 | |
| 20260831142017 | 50 | 0.0 | 0.0 | 0.00 | 0.00 | 0.00 | 96 | 1014.3 | |
| 20260831141017 | 50 | 0.0 | 0.0 | 0.00 | 0.00 | 0.00 | 96 | 1014.2 | |
| 20260831140016 | 50 | 0.0 | 0.0 | 0.00 | 0.00 | 0.00 | 96 | 1014.2 | |
| 20260831135019 | 50 | 0.0 | 0.0 | 0.00 | 0.00 | 0.00 | 96 | 1014.2 | |
| 20260831134038 | 50 | 0.0 | 0.0 | 0.00 | 0.00 | 0.00 | 96 | 1014.2 | |
| 20260831133018 | 50 | 0.0 | 0.0 | 0.00 | 0.00 | 0.00 | 95 | 1014.3 | |
| 20260831132018 | 50 | 0.0 | 0.0 | 0.00 | 0.00 | 0.00 | 96 | 1014.2 | |
| 20260831131017 | 50 | 0.0 | 0.0 | 0.00 | 0.00 | 0.00 | 95 | 1014.3 | |
| 20260831130017 | 50 | 0.0 | 0.0 | 0.00 | 0.00 | 0.00 | 95 | 1014.4 | |
| 20260831125036 | 50 | 0.0 | 0.0 | 0.00 | 0.00 | 0.00 | 95 | 1014.4 | |
| 20260831124016 | 50 | 0.0 | 0.0 | 0.00 | 0.00 | 0.00 | 95 | 1014.5 | |
| 20260831123016 | 50 | 0.0 | 0.0 | 0.00 | 0.00 | 0.00 | 95 | 1014.6 | |
| 20260831122016 | 50 | 0.0 | 0.0 | 0.00 | 0.00 | 0.00 | 95 | 1014.7 | |
| 20260831121016 | 50 | 0.0 | 0.0 | 0.00 | 0.00 | 0.00 | 95 | 1014.8 | |
| 20260831120017 | 51 | 0.0 | 0.0 | 0.00 | 0.00 | 0.00 | 95 | 1014.8 | |
| 20260831115017 | 51 | 0.0 | 0.0 | 0.00 | 0.00 | 0.00 | 95 | 1014.8 | |
| 20260831114017 | 51 | 0.0 | 0.0 | 0.00 | 0.00 | 0.00 | 94 | 1014.9 | |
| 20260831113017 | 51 | 0.0 | 0.0 | 0.00 | 0.00 | 0.00 | 94 | 1015.0 | |
| 20260831112016 | 51 | 0.0 | 0.0 | 0.00 | 0.00 | 0.00 | 94 | 1015.1 | |
| 20260831111016 | 51 | 0.0 | 0.0 | 0.00 | 0.00 | 0.00 | 94 | 1015.1 | |
| 20260831110017 | 51 | 0.0 | 0.0 | 0.00 | 0.00 | 0.00 | 94 | 1015.1 | |
| 20260831105036 | 51 | 0.0 | 0.0 | 0.00 | 0.00 | 0.00 | 94 | 1015.2 | |
| 20260831104016 | 51 | 0.0 | 0.0 | 0.00 | 0.00 | 0.00 | 94 | 1015.4 | |
| 20260831103016 | 52 | 0.0 | 0.0 | 0.00 | 0.00 | 0.00 | 94 | 1015.4 | |
| 20260831102017 | 52 | 0.0 | 0.0 | 0.00 | 0.00 | 0.00 | 94 | 1015.3 | |
| 20260831101057 | 52 | 0.0 | 0.0 | 0.00 | 0.00 | 0.00 | 94 | 1015.6 | |
| 20260831100016 | 52 | 0.0 | 0.0 | 0.00 | 0.00 | 0.00 | 93 | 1015.7 | |
| 20260831095017 | 52 | 0.0 | 0.0 | 0.00 | 0.00 | 0.00 | 93 | 1015.8 | |
| 20260831094017 | 52 | 0.0 | 0.0 | 0.00 | 0.00 | 0.00 | 93 | 1016.0 | |
| 20260831093016 | 52 | 0.0 | 0.0 | 0.00 | 0.00 | 0.00 | 93 | 1016.0 | |
| 20260831092017 | 52 | 0.0 | 0.0 | 0.00 | 0.00 | 0.00 | 93 | 1016.1 | |
| 20260831091037 | 52 | 0.0 | 0.0 | 0.00 | 0.00 | 0.00 | 93 | 1016.2 | |
| 20260831090017 | 53 | 0.0 | 0.0 | 0.00 | 0.00 | 0.00 | 92 | 1016.3 | |
| 20260831085036 | 53 | 0.0 | 0.0 | 0.00 | 0.00 | 0.00 | 92 | 1016.3 | |
| 20260831084016 | 53 | 0.0 | 0.0 | 0.00 | 0.00 | 0.00 | 92 | 1016.3 | |
| 20260831083017 | 53 | 0.0 | 0.0 | 0.00 | 0.00 | 0.00 | 92 | 1016.4 | |
| 20260831082016 | 53 | 0.0 | 0.0 | 0.00 | 0.00 | 0.00 | 91 | 1016.4 | |
| 20260831081016 | 53 | 0.0 | 0.0 | 0.00 | 0.00 | 0.00 | 91 | 1016.5 | |
| 20260831080016 | 54 | 0.0 | 0.0 | 0.00 | 0.00 | 0.00 | 91 | 1016.6 | |
| 20260831075016 | 54 | 0.0 | 0.0 | 0.00 | 0.00 | 0.00 | 90 | 1016.7 | |
| 20260831074016 | 54 | 0.0 | 0.0 | 0.00 | 0.00 | 0.00 | 90 | 1016.6 | |
| 20260831073021 | 54 | 0.0 | 0.0 | 0.00 | 0.00 | 0.00 | 89 | 1016.7 | |
| 20260831072041 | 55 | 0.0 | 0.0 | 0.00 | 0.00 | 0.00 | 89 | 1016.8 | |
| 20260831071016 | 55 | 0.0 | 0.0 | 0.00 | 0.00 | 0.00 | 89 | 1016.8 | |
| 20260831070022 | 55 | 0.0 | 0.0 | 0.00 | 0.00 | 0.00 | 88 | 1017.0 | |
| 20260831065017 | 55 | 0.0 | 0.0 | 0.00 | 0.00 | 0.00 | 88 | 1017.1 | |
| 20260831064117 | 56 | 0.0 | 0.0 | 0.00 | 0.00 | 0.00 | 87 | 1017.2 | |
| 20260831063059 | 56 | 0.0 | 0.0 | 0.00 | 0.00 | 0.00 | 86 | 1017.3 | |
| 20260831062018 | 56 | 0.0 | 0.0 | 0.00 | 0.00 | 0.00 | 86 | 1017.3 | |
| 20260831061016 | 57 | 0.0 | 0.0 | 0.00 | 0.00 | 0.00 | 85 | 1017.4 | |
| 20260831060050 | 57 | 0.0 | 0.0 | 0.00 | 0.00 | 0.00 | 84 | 1017.5 | |
| 20260831055039 | 57 | 0.0 | 0.0 | 0.00 | 0.00 | 0.00 | 84 | 1017.5 | |
| 20260831054018 | 57 | 0.0 | 0.0 | 0.00 | 0.00 | 0.00 | 84 | 1017.7 | |
| 20260831053022 | 58 | 0.0 | 0.0 | 0.00 | 0.00 | 0.00 | 83 | 1017.8 |